Theta_e
310 309 309 309 309 309 309 310 310 310 310 311 311 312 312 312 313 313 313 313 313 313 313 313 312 313 313 314 315 313 316 316 316 317 317 315 316 314 314 315 314 313 313 313 313
309 309 309 309 309 309 309 309 310 310 310 311 311 312 312 312 313 313 313 313 312 312 313 313 312 312 314 316 316 316 316 315 313 315 317 316 316 316 315 315 315 313 313 312 312
309 308 309 309 309 309 309 309 310 310 311 311 311 312 312 312 313 313 312 312 312 312 311 311 312 313 315 315 316 315 316 313 312 313 314 316 315 315 316 316 315 315 311 312 312
308 308 308 308 308 309 309 309 310 310 311 311 311 311 311 312 315 313 312 311 312 311 312 313 313 314 315 315 315 316 315 314 315 314 314 315 315 315 315 313 311 312 311 311 311
308 308 308 308 309 309 309 310 310 311 311 311 310 310 312 315 314 314 313 312 312 312 312 313 313 313 314 314 314 316 315 314 314 314 313 313 314 315 312 309 310 310 310 311 311
310 310 310 310 310 310 310 310 310 310 310 309 310 313 316 317 316 317 317 317 315 315 313 313 313 312 313 314 315 313 313 313 313 313 312 313 313 312 308 308 308 309 310 310 311
314 312 311 311 310 310 310 310 309 309 310 312 314 316 317 318 318 318 318 317 316 315 313 312 313 312 313 313 311 312 315 315 315 313 313 312 313 313 308 308 308 307 307 308 309
316 315 315 315 315 315 315 315 315 316 316 316 316 316 317 318 318 318 318 317 316 315 313 312 312 312 313 311 312 314 314 319 315 312 311 313 320 310 307 309 308 306 305 306 308
321 316 315 315 315 314 314 314 313 314 314 315 315 315 317 316 316 317 317 316 315 313 312 311 312 313 312 314 315 314 320 316 317 312 313 313 318 310 307 308 308 306 304 304 306
323 323 318 315 315 315 314 314 314 313 314 314 316 316 315 316 315 315 315 315 314 313 312 312 312 314 312 315 320 320 317 315 317 314 312 314 316 310 307 308 307 304 303 302 302
324 323 323 320 317 316 314 314 314 316 315 316 316 316 315 315 315 314 315 314 313 312 315 312 315 316 317 316 317 317 316 317 315 313 313 316 316 314 307 306 305 304 303 302 300
323 324 324 323 320 318 317 314 313 315 317 315 316 315 316 315 313 312 313 313 312 315 311 312 315 317 313 314 314 314 316 316 314 312 312 315 314 314 307 307 305 304 302 301 299
322 322 323 324 323 321 320 318 315 316 318 317 315 315 316 316 315 313 312 311 312 312 312 317 316 312 312 311 312 313 315 316 316 313 312 313 316 313 305 303 301 301 300 300 299
319 322 323 323 320 321 322 322 319 317 321 320 317 317 315 316 314 314 313 313 310 313 311 313 312 310 311 312 312 315 312 313 314 315 320 313 322 316 310 305 302 300 300 298 297
316 320 323 322 321 321 322 323 321 317 326 319 315 313 313 315 312 310 310 310 314 312 312 315 311 313 314 313 311 315 311 313 313 316 315 315 318 319 307 307 304 301 300 298 296
309 317 323 323 322 322 321 321 320 320 323 321 312 313 314 311 309 308 309 310 311 312 311 313 309 311 313 310 311 309 311 310 310 313 318 318 317 322 311 310 306 301 299 297 295
309 311 322 322 321 321 321 320 320 318 318 319 315 312 316 313 309 310 310 312 315 316 317 315 313 309 309 313 309 311 314 320 318 317 322 311 315 319 312 307 306 302 299 297 295
309 309 321 322 321 320 319 319 317 319 320 310 310 311 317 312 312 310 312 314 313 315 317 320 321 313 310 316 316 312 317 322 325 320 318 310 314 315 306 304 304 301 300 297 294
313 313 317 321 322 321 318 321 320 318 317 312 310 315 315 310 313 311 313 316 315 313 319 319 320 310 307 308 314 311 312 313 311 305 316 317 314 307 303 303 302 301 299 296 294
313 312 316 317 319 319 318 321 318 316 314 311 320 317 319 314 314 313 313 313 314 312 315 316 320 309 307 308 307 311 311 314 314 320 322 317 315 318 307 305 303 301 299 297 295
314 315 315 316 318 317 318 316 316 316 314 313 317 319 317 314 314 313 316 313 313 311 313 312 314 311 308 311 314 310 311 312 313 315 321 320 317 311 311 307 304 302 299 297 295
314 313 313 316 316 317 317 312 316 316 316 315 315 317 315 312 312 313 314 313 309 309 313 313 313 316 312 307 306 311 313 313 317 314 313 315 317 305 306 307 304 302 300 298 296
313 312 313 316 316 318 316 315 316 316 317 317 317 317 316 316 315 315 315 309 308 310 313 312 315 320 317 309 307 309 309 311 314 313 317 319 318 304 304 304 303 302 301 299 296
309 312 311 312 313 315 317 314 316 315 316 316 317 317 318 318 315 317 315 309 307 308 308 310 314 319 323 319 314 312 311 310 313 317 317 316 316 307 305 305 303 302 301 299 297
306 308 308 311 312 313 312 311 315 316 315 316 317 318 318 319 317 316 315 307 306 307 309 310 314 315 316 307 308 310 312 310 312 313 316 316 313 311 308 306 305 303 301 300 296
305 305 304 304 305 307 311 312 312 312 313 314 316 314 317 319 317 315 312 309 310 305 309 307 313 311 315 305 306 309 308 310 310 312 312 310 310 309 308 305 305 303 301 298 296
302 303 304 304 304 307 307 307 308 309 307 308 308 310 309 308 306 303 307 308 306 306 307 306 308 312 315 302 306 312 311 308 309 309 309 310 312 304 303 304 305 303 300 299 298
Wind_Speed
4 3 4 4 3 3 4 3 4 5 5 5 6 7 8 9 10 10 9 5 6 6 5 5 3 2 1 3 3 2 2 3 4 6 5 3 4 3 2 2 2 2 1 5 6
6 5 6 6 6 6 6 6 6 7 7 7 8 8 9 10 11 12 7 5 4 4 4 5 5 4 3 3 2 1 2 2 2 3 4 4 2 1 3 3 3 4 2 8 7
8 8 8 8 8 8 8 8 8 9 9 9 10 10 11 11 12 3 2 4 5 6 6 6 6 4 2 2 1 2 2 3 3 4 2 2 3 3 3 4 2 3 4 5 4
10 9 9 10 10 10 10 10 10 10 11 11 12 11 11 9 4 2 4 6 6 6 6 7 6 2 2 2 1 3 3 4 3 5 4 4 2 3 5 1 5 6 5 4 4
11 11 11 11 11 11 12 12 12 12 13 13 12 12 10 6 8 9 7 7 7 6 7 7 5 4 4 4 3 3 2 4 4 7 7 5 8 4 3 6 8 5 7 5 3
13 13 13 13 13 13 14 14 14 14 14 14 13 12 10 8 8 10 9 10 10 9 10 9 4 6 4 2 4 2 3 5 6 7 6 6 3 4 3 7 8 7 5 3 2
13 14 14 14 14 14 15 15 15 14 14 14 14 13 14 18 10 9 10 10 10 10 10 10 8 5 6 4 2 0 5 7 10 4 6 8 4 6 7 8 6 4 2 1 0
11 12 14 15 15 15 15 15 15 15 15 14 14 13 10 14 14 17 17 12 10 11 10 10 9 6 2 7 2 3 3 5 4 5 3 6 4 6 7 7 4 3 1 1 1
12 12 13 13 14 15 15 15 15 15 15 14 12 9 9 13 14 17 15 14 13 11 10 10 11 4 6 5 3 4 8 6 3 4 3 7 2 9 2 8 6 3 3 3 2
16 14 13 13 14 15 15 14 14 15 15 13 13 6 16 9 9 12 16 14 11 13 10 8 4 4 3 8 10 8 6 5 7 4 5 5 9 8 1 7 6 5 4 3 2
18 17 16 14 14 14 14 12 9 10 15 12 6 6 3 13 10 10 15 17 10 8 9 6 8 13 23 20 9 4 7 8 5 2 4 13 14 12 8 7 8 7 6 5 5
18 18 17 17 17 16 14 8 9 6 10 16 24 22 12 10 8 14 18 13 10 10 8 5 16 17 1 11 12 8 11 14 7 5 5 12 16 11 11 8 10 11 10 9 10
20 19 19 18 21 21 19 16 14 10 7 10 24 25 30 26 14 19 25 13 7 11 16 16 5 11 10 8 12 14 16 13 10 1 6 7 16 12 5 6 9 10 11 12 13
21 21 18 15 19 21 25 16 17 3 6 7 8 9 17 18 10 22 30 14 7 14 9 13 6 7 10 11 13 15 13 10 9 5 10 4 8 6 9 9 12 14 16 15 16
24 21 19 19 19 19 23 19 18 11 5 3 3 3 12 13 10 9 26 14 12 10 8 6 9 11 10 8 14 5 6 8 7 10 7 8 7 3 6 12 14 18 19 18 18
25 24 22 22 23 24 20 15 17 3 9 4 3 5 7 4 2 5 12 7 5 5 2 7 1 5 5 3 5 13 8 5 2 3 8 16 13 6 7 9 17 22 22 21 21
28 25 25 30 29 27 23 15 4 5 2 6 5 7 10 7 5 6 13 13 12 9 15 11 10 4 5 6 3 6 10 2 5 5 7 0 11 11 4 7 19 27 29 27 25
28 26 27 32 29 28 21 6 8 6 10 2 4 4 10 8 6 8 9 12 16 7 4 11 8 16 15 19 10 17 13 7 6 6 2 3 8 5 3 5 13 28 30 27 26
23 24 29 33 31 33 22 10 10 10 7 12 6 6 7 6 5 8 12 9 13 19 14 9 8 4 3 4 14 8 10 2 4 1 2 6 4 4 4 6 15 28 30 30 29
21 23 32 31 28 26 12 17 10 10 9 6 14 14 13 12 13 13 13 8 9 20 13 6 5 2 5 5 1 7 11 5 5 5 6 4 6 8 10 13 16 25 32 33 31
20 13 17 23 18 17 7 7 6 17 15 9 12 8 12 10 14 10 9 5 15 14 24 6 5 3 6 12 17 7 7 5 3 5 4 3 4 3 10 18 22 28 34 36 35
20 8 14 21 12 6 9 7 6 10 20 2 4 8 9 10 9 11 12 8 12 14 16 10 1 6 11 1 2 11 11 16 7 6 5 3 5 2 2 14 25 29 34 35 34
7 13 11 32 8 13 7 8 12 8 10 8 11 12 12 11 8 15 13 5 13 14 16 11 6 3 2 3 3 9 12 15 13 2 11 7 5 1 2 11 20 24 31 32 31
4 4 10 21 21 6 9 9 8 12 9 10 7 13 15 15 14 8 10 5 11 11 5 8 5 11 14 3 5 9 15 16 15 10 12 17 7 6 7 11 18 23 28 35 37
7 5 4 4 8 12 8 4 6 7 18 22 11 22 15 11 14 13 13 3 4 7 7 7 9 15 15 3 2 3 14 19 21 28 16 18 18 14 16 16 25 26 24 32 35
5 4 4 1 3 3 9 13 18 16 5 3 8 2 15 13 10 9 11 7 6 4 9 5 4 8 12 2 1 2 7 18 21 20 17 9 9 4 10 11 13 24 30 35 38
10 8 4 3 3 5 5 5 5 3 3 5 3 2 6 4 1 2 5 5 7 7 9 8 6 6 4 2 4 6 17 13 10 12 14 14 9 6 6 13 21 23 30 38 42
Wind_Direction
229 245 252 259 258 261 272 277 286 297 305 311 319 321 320 319 316 311 302 268 254 246 234 228 215 209 102 81 79 107 190 181 181 175 156 151 185 182 269 248 87 98 140 230 257
247 243 259 269 272 277 280 286 290 293 298 306 306 308 311 315 313 303 280 245 220 203 199 194 183 162 109 98 65 256 246 195 148 172 166 162 232 207 218 203 184 144 317 278 248
249 263 264 265 269 274 279 283 287 291 295 300 303 308 312 319 318 263 208 184 160 154 152 158 157 145 108 134 148 164 241 155 198 206 181 219 239 200 225 236 169 227 296 269 223
255 255 261 265 268 273 277 281 285 288 292 296 299 303 307 312 293 216 192 180 174 168 167 163 169 130 148 208 160 230 206 198 176 196 168 210 247 239 232 214 216 251 246 182 154
262 263 264 267 269 270 272 276 280 284 289 291 294 298 303 282 255 253 229 213 208 207 205 206 194 170 203 176 175 232 215 205 220 215 232 226 241 266 206 225 232 210 173 156 137
268 266 267 270 272 273 274 276 277 280 284 287 289 292 292 263 259 246 241 234 232 232 224 213 217 195 128 185 229 174 245 267 266 248 222 217 227 188 157 153 153 155 157 152 165
268 270 270 270 270 272 274 275 277 276 278 281 284 287 279 263 261 245 236 230 228 225 222 214 207 180 156 157 170 216 282 275 241 233 219 166 175 196 158 163 155 152 143 129 89
265 271 272 273 272 272 273 273 274 276 276 278 281 283 262 261 251 242 237 233 224 220 215 206 193 186 150 132 96 234 256 268 136 169 165 199 222 152 166 183 173 158 154 173 190
261 265 273 274 277 276 272 273 274 275 273 273 275 259 262 251 243 235 228 230 217 199 192 189 175 148 139 179 219 215 258 229 283 202 147 221 240 164 184 206 196 186 192 196 199
257 262 265 271 275 277 278 278 276 276 267 267 252 263 237 231 224 221 214 205 193 185 156 164 144 183 177 194 234 215 215 224 239 170 206 207 245 173 183 191 195 191 184 163 158
274 256 261 267 272 274 278 284 288 268 234 217 212 215 214 212 213 200 194 181 169 173 194 176 201 213 214 213 240 236 216 210 209 186 238 245 253 208 193 189 191 191 180 158 141
262 268 262 264 266 265 262 246 240 269 294 256 246 242 235 202 187 195 185 176 177 200 149 170 228 229 232 206 207 218 238 243 268 238 224 262 253 227 199 217 207 188 174 163 140
259 251 263 263 259 257 255 253 257 275 266 256 239 234 231 226 218 207 185 195 190 189 196 217 200 214 193 177 197 224 231 238 253 152 231 279 264 220 186 177 171 172 164 152 145
257 251 250 264 241 249 252 255 244 263 276 235 217 232 209 208 224 217 203 189 199 215 193 241 202 155 192 210 198 230 213 231 245 244 262 199 284 207 196 185 186 173 167 158 149
252 250 239 238 244 241 265 255 225 187 253 73 133 186 168 187 131 185 188 204 207 172 179 206 175 194 198 205 191 243 149 206 226 240 270 210 261 159 173 211 195 181 173 164 157
250 244 237 241 248 255 259 262 194 193 232 226 129 161 158 194 120 112 171 186 198 162 248 270 188 201 207 95 192 133 102 88 114 215 252 231 218 213 204 218 180 179 177 172 165
244 240 237 237 237 241 242 204 216 207 90 191 186 185 197 174 170 175 176 189 191 190 225 222 225 190 173 157 88 176 155 189 226 208 250 276 211 255 221 187 185 175 176 177 172
237 235 233 239 243 231 216 186 208 217 211 122 133 130 195 158 196 177 167 201 218 205 145 206 231 196 191 215 188 194 194 197 221 207 210 138 225 235 129 145 175 179 176 175 175
235 232 235 241 241 228 190 212 205 196 191 159 130 189 206 206 216 186 203 220 207 196 199 198 239 176 205 152 173 180 213 202 100 53 262 209 228 213 151 153 165 173 175 180 182
230 230 238 235 242 228 217 230 217 197 142 167 201 201 210 196 187 197 190 202 209 199 201 194 243 204 156 133 168 196 147 180 216 222 232 219 253 232 199 185 175 181 185 184 184
218 233 236 236 233 217 235 214 210 215 191 171 203 213 229 191 206 203 223 191 205 191 194 158 226 125 154 208 186 171 189 206 210 217 221 260 230 205 200 187 186 190 189 187 187
214 221 231 200 192 198 224 189 219 206 213 156 165 218 207 193 208 214 224 237 189 150 181 197 189 207 203 89 333 233 219 191 201 186 238 303 247 189 203 190 188 190 192 191 190
221 229 211 193 222 217 202 212 207 180 197 183 204 206 212 218 212 215 225 161 167 184 173 171 191 174 227 207 177 219 207 218 233 42 203 188 224 298 182 180 190 189 191 192 192
223 229 200 203 234 228 228 216 206 213 226 207 219 205 217 220 205 207 225 192 190 206 177 202 173 197 223 206 144 200 207 201 203 222 210 229 215 193 183 188 190 193 194 193 194
222 215 212 197 227 224 219 152 223 214 218 214 218 213 206 225 213 217 215 148 190 208 154 196 224 218 245 327 307 241 193 196 208 222 217 243 228 198 192 192 198 197 193 192 196
236 211 190 189 167 165 232 248 242 237 177 264 250 321 229 235 226 209 177 175 183 171 182 183 228 188 240 135 300 258 224 210 219 230 239 245 237 156 198 195 190 196 192 196 200
229 221 189 196 191 188 197 182 207 191 202 201 183 292 274 309 62 29 21 134 140 154 181 168 158 181 184 144 161 249 215 203 203 217 217 219 233 155 179 207 215 206 200 205 206